GOES 1 (SMS-C) [-] 1 08366U 75100A 21100.70364112 .00000025 00000-0 00000-0 0 9991 2 08366 9.2961 301.2414 0001826 21.6385 0.9641 1.00263355166085 GOES 2 [-] 1 10061U 77048A 21100.36765963 -.00000245 00000-0 00000-0 0 9995 2 10061 10.7995 311.8050 0014862 16.0991 349.8501 0.99401575 27454 GOES 3 [-] 1 10953U 78062A 21100.61758243 -.00000056 00000-0 00000-0 0 9993 2 10953 11.0826 315.9881 0003659 69.7097 299.0527 0.99358396109729 GOES 4 [-] 1 11964U 80074A 21100.83589219 -.00000196 00000-0 00000+0 0 9995 2 11964 11.9993 319.7691 0035774 58.1476 296.9629 0.99233900108847 GOES 5 [-] 1 12472U 81049A 21100.70250705 .00000058 00000-0 00000-0 0 9991 2 12472 12.6673 330.7321 0002898 38.1375 308.3761 1.00233027103859 GOES 6 [-] 1 14050U 83041A 21100.34276892 .00000040 00000-0 00000-0 0 9995 2 14050 13.1401 335.9003 0004079 78.1702 136.5110 1.00248846197029 GOES 7 [-] 1 17561U 87022A 21100.60745991 -.00000320 00000-0 00000+0 0 9999 2 17561 14.5848 352.2444 0008330 30.4105 143.9093 0.99896010108069 GOES 8 [-] 1 23051U 94022A 21100.13592800 -.00000256 00000-0 00000-0 0 9994 2 23051 12.8060 27.3236 0009214 355.1479 200.3067 0.98907287105399 GOES 9 [-] 1 23581U 95025A 21100.45069706 -.00000006 00000-0 00000-0 0 9998 2 23581 12.2949 27.4374 0006729 44.5634 332.1875 0.98799137 94055 GOES 10 [-] 1 24786U 97019A 21100.29379569 -.00000164 00000-0 00000-0 0 9999 2 24786 10.9366 33.3189 0023707 195.1083 7.4538 0.99123441 87293 GOES 11 [-] 1 26352U 00022A 21100.44562486 -.00000103 00000-0 00000-0 0 9990 2 26352 7.7785 62.6694 0002973 298.7354 281.0312 0.99041233 33718 GOES 12 [-] 1 26871U 01031A 21099.93286844 .00000065 00000-0 00000-0 0 9995 2 26871 8.7525 50.9278 0009123 308.8153 224.9635 0.99135618 71985 EWS-G1 (GOES 13) [+] 1 29155U 06018A 21100.88515983 .00000025 00000-0 00000-0 0 9995 2 29155 0.2821 273.8114 0002303 308.6734 357.0110 1.00272551 24389 GOES 14 [B] 1 35491U 09033A 21101.22338247 -.00000103 00000-0 00000+0 0 9997 2 35491 0.1471 121.2999 0009882 99.0658 315.3881 1.00273011 43173 GOES 15 [B] 1 36411U 10008A 21100.70372837 .00000042 00000-0 00000-0 0 9991 2 36411 0.0987 229.5051 0004450 177.3102 277.5213 1.00279101 40696 GOES 16 [+] 1 41866U 16071A 21101.14494824 -.00000258 00000-0 00000+0 0 9996 2 41866 0.0474 289.7655 0001326 110.2101 136.5730 1.00271765 16126 GOES 17 [+] 1 43226U 18022A 21100.70198365 .00000086 00000-0 00000-0 0 9997 2 43226 0.0438 299.5864 0000518 132.6499 242.4072 1.00274326 11429